Location: Newark
(48.1500°N, 2.9667°W)
Time: 14:33:39
(UTC+00:00)

A-11 Canister half - Pass Details

Date: 26 January 2020
Orbit: 1517 x 1683 km, 47.2° (Epoch: 28 February)

Event Time Altitude Azimuth Distance (km) Brightness Sun altitude
Exits shadow 02:42:53 29° 94° (E) 2,509 10.3 -49.5°
Drops below altitude 10° 02:46:42 10° 94° (E) 3,688 11.4 -48.9°
Sets 02:49:44 0° 94° (E) 4,680 12.0 -48.5°
